Temp
10 10 11 11 11 11 11 11 12 13 14 14 17 18 18 18 20 21 25 28 27 27 26 28 27 30 32 33 35 36 33 33 35 33 33 32 29 28 26 22 20 23 22 16 14
10 10 11 11 11 11 11 11 11 12 13 14 16 17 18 18 17 22 27 27 27 27 26 29 31 33 33 34 35 34 33 34 36 36 32 31 31 29 27 23 17 16 16 15 15
9 9 10 10 11 11 11 11 11 12 12 14 16 17 18 18 22 29 26 27 26 27 26 31 32 34 33 34 35 34 33 35 36 34 35 31 26 28 29 23 19 16 16 16 18
9 9 9 9 11 11 11 11 12 12 12 14 16 17 19 18 28 27 27 27 27 26 26 29 33 32 32 33 35 34 35 35 36 34 29 28 25 21 22 21 19 18 18 19 20
8 9 9 10 10 11 11 11 12 12 12 14 16 16 19 24 27 27 27 27 26 25 28 31 32 32 32 34 35 34 35 35 35 32 26 23 20 19 18 19 19 19 19 19 20
7 8 9 10 10 11 11 11 12 12 13 14 15 16 17 23 29 28 28 26 28 28 30 32 33 34 33 33 33 34 34 35 35 30 27 25 22 20 17 18 19 19 18 18 19
7 7 8 9 10 10 10 11 12 13 13 15 15 14 19 23 28 28 28 28 29 29 31 32 33 33 33 32 34 33 33 33 34 31 28 24 18 16 17 18 17 12 13 12 13
7 7 8 9 10 10 10 12 13 13 14 15 15 14 20 26 27 27 29 29 29 31 31 32 32 32 32 33 33 32 32 31 33 33 29 29 19 16 17 16 13 12 11 10 9
6 7 7 8 9 10 10 12 14 14 14 14 14 17 23 25 26 27 28 29 30 30 30 30 30 30 31 30 30 32 30 31 32 33 31 28 18 16 17 15 13 12 10 9 8
6 7 7 8 8 10 11 13 17 14 15 14 17 21 24 27 29 28 28 29 31 30 30 29 30 29 30 29 28 30 31 33 32 31 28 23 18 17 16 15 13 11 10 9 8
6 7 7 7 8 10 10 13 20 18 17 22 25 25 29 29 27 28 29 29 30 30 28 30 29 29 31 31 32 33 33 33 32 32 31 24 19 17 16 14 12 11 9 9 8
6 6 7 7 8 10 11 15 18 17 15 20 22 24 26 28 26 29 29 28 28 28 29 29 28 31 33 33 33 33 32 32 31 31 30 26 22 18 15 14 13 11 10 9 9
6 6 7 7 9 11 13 16 17 16 16 21 24 24 26 27 27 29 29 28 28 28 30 29 31 33 32 32 32 32 32 32 32 31 31 28 19 16 16 15 13 12 11 10 10
6 6 6 8 9 11 14 17 16 15 17 24 25 27 27 28 27 29 31 29 29 29 30 30 32 32 32 32 32 31 33 33 32 30 29 28 24 17 14 14 13 12 11 11 12
6 6 6 7 8 11 11 12 16 15 19 28 28 29 29 27 29 29 30 30 29 30 31 30 31 31 31 32 33 32 33 33 32 31 30 28 26 20 16 15 13 12 12 12 11
6 6 6 9 9 10 10 12 14 15 20 27 27 26 27 27 28 31 29 31 31 30 31 31 33 32 32 33 33 33 32 32 32 31 29 29 27 20 20 20 15 13 13 12 11
6 6 5 8 10 9 9 11 14 18 26 26 26 27 27 27 27 29 29 29 28 26 27 30 31 32 33 32 33 32 31 28 28 28 26 28 27 24 25 25 17 14 13 12 11
6 6 6 7 9 7 7 11 14 22 25 30 28 27 26 28 27 28 29 28 28 29 29 29 28 31 32 32 31 31 31 29 27 26 28 29 25 22 22 21 17 15 13 12 13
5 6 7 8 9 6 6 10 17 23 26 28 28 26 26 28 28 28 29 29 29 30 29 30 29 32 33 32 32 30 30 32 30 31 30 24 23 22 20 18 16 14 14 15 14
6 8 9 10 8 6 7 10 16 24 28 28 27 27 26 27 27 28 29 30 30 31 31 31 30 32 32 32 32 32 33 30 30 28 27 24 24 21 19 17 16 16 16 15 15
7 9 10 10 6 6 7 10 15 21 24 27 27 27 28 28 28 28 28 30 31 31 31 31 30 31 32 31 30 31 30 31 31 28 26 27 23 24 21 19 18 17 16 16 17
7 8 11 8 6 6 7 11 15 19 22 25 26 26 28 29 28 28 28 30 32 32 30 31 31 30 31 32 33 32 31 31 29 29 27 28 22 25 22 21 19 18 17 18 17
8 10 9 8 7 8 9 13 14 16 20 24 24 26 28 28 28 29 29 31 32 31 30 31 29 28 30 31 32 31 32 32 31 30 29 28 21 24 23 21 20 19 19 18 17
8 8 11 7 5 8 9 12 15 17 18 20 22 25 26 27 29 28 28 31 31 32 25 29 30 29 29 30 30 29 31 32 31 29 29 25 22 22 22 20 20 19 18 17 16
8 7 11 7 7 6 7 14 16 17 19 21 21 22 24 26 27 28 29 30 30 23 30 29 28 29 31 32 31 31 31 31 30 30 28 24 23 22 21 20 19 18 18 17 16
7 8 9 8 8 7 8 12 17 19 20 21 22 25 25 26 28 27 29 29 28 28 29 29 28 29 30 31 32 31 31 31 30 29 27 25 23 23 22 21 19 18 17 17 16
8 8 7 8 7 6 10 14 18 20 21 22 24 25 26 26 24 27 28 29 29 28 28 28 28 28 28 30 30 28 29 29 29 29 27 24 23 22 21 20 19 18 18 17 16
Height
830 826 824 821 818 815 812 809 805 801 798 794 791 788 783 777 770 767 764 759 757 757 758 758 758 754 751 747 740 735 760 759 743 746 749 738 754 759 773 784 792 780 784 808 824
829 826 823 820 819 815 811 808 806 801 797 793 790 787 783 777 770 762 755 755 756 757 758 756 752 750 749 744 739 745 759 749 726 727 745 752 750 755 763 779 800 805 814 819 825
828 825 823 821 818 815 812 809 805 800 796 792 788 785 782 777 769 749 751 753 754 755 755 752 749 744 750 740 738 741 755 734 729 731 730 749 765 761 755 785 802 813 819 824 825
829 826 823 821 818 815 811 807 803 800 796 792 787 784 780 777 769 751 752 752 752 754 756 753 746 749 752 751 734 749 735 732 729 732 751 762 776 788 787 803 811 816 821 823 825
828 826 823 819 816 811 809 806 803 800 795 791 787 784 779 773 758 751 751 750 750 753 754 750 749 749 754 744 736 741 736 733 728 741 766 779 794 802 814 816 819 821 824 826 828
827 824 821 818 814 812 809 805 801 797 793 790 788 785 785 778 753 752 752 752 752 753 751 747 744 740 745 744 745 734 734 734 730 748 766 779 798 805 826 824 824 826 830 833 833
826 824 821 818 814 811 806 801 797 794 790 788 788 786 781 763 753 751 752 752 751 751 747 744 741 743 741 750 737 738 748 740 737 745 764 771 812 828 828 828 829 841 843 845 846
826 822 819 817 814 809 804 798 794 789 786 786 786 786 772 752 752 750 750 750 749 748 746 743 743 745 746 740 742 750 748 762 735 738 749 757 820 829 828 831 839 845 849 853 856
825 822 819 815 811 806 801 794 788 784 784 786 783 783 762 749 747 746 748 747 746 748 748 748 749 750 749 758 762 748 764 755 746 734 748 764 819 827 829 834 843 849 854 858 861
824 821 818 814 810 806 800 791 780 780 782 784 780 780 754 744 736 742 744 745 742 746 748 751 751 756 757 763 780 759 755 740 746 747 759 788 814 824 831 836 845 852 857 860 863
823 821 818 814 810 807 800 790 779 781 778 762 755 750 736 738 740 740 739 743 741 744 758 749 761 761 748 742 741 735 736 740 737 740 749 786 813 827 833 841 848 854 859 861 864
823 820 817 812 808 805 804 798 789 793 779 760 752 750 743 741 744 736 737 744 746 752 748 754 758 739 730 729 732 735 741 745 741 740 749 773 804 823 835 840 845 852 858 862 864
822 820 816 811 807 803 800 795 792 790 780 746 737 738 736 741 740 731 732 738 743 749 743 752 736 723 730 731 736 736 742 742 741 742 745 767 817 829 835 842 848 852 856 860 863
821 819 816 812 808 801 795 794 792 793 779 737 726 720 726 731 735 725 721 731 734 742 737 736 725 726 728 734 729 748 725 731 734 749 769 756 799 829 841 847 851 854 856 858 860
820 819 817 815 809 804 801 795 794 792 775 706 706 704 707 724 717 719 716 722 734 729 730 735 731 731 734 730 723 737 719 725 731 740 749 757 778 810 820 834 845 851 852 855 861
818 817 816 813 810 808 803 798 794 789 759 706 699 710 713 716 718 704 714 713 717 728 720 724 708 718 723 717 717 716 730 732 734 739 762 750 764 807 807 801 828 845 846 854 859
814 815 815 814 810 807 805 801 790 761 703 705 707 706 708 714 717 713 717 722 733 748 744 725 721 713 710 724 716 723 737 766 771 767 783 757 767 785 776 770 811 835 843 852 859
811 812 812 810 811 809 811 803 779 716 705 676 690 701 712 704 712 713 712 723 720 722 731 738 745 718 708 718 730 732 735 754 777 781 764 746 780 799 788 796 818 835 845 852 855
809 808 807 806 809 811 818 795 740 705 695 685 686 704 709 701 702 708 704 711 707 710 729 724 729 704 703 706 713 730 741 717 741 734 746 776 791 793 803 815 827 838 846 847 852
805 804 798 800 802 811 813 777 742 698 681 681 693 692 704 699 705 704 702 693 701 698 696 706 725 697 700 706 706 713 708 742 734 768 775 782 779 801 809 820 827 832 838 845 848
803 797 789 793 800 808 795 767 742 707 694 685 685 688 688 690 692 698 696 688 687 692 693 697 709 707 700 714 722 719 726 720 722 749 777 769 791 773 797 808 820 829 836 841 842
796 790 783 787 799 794 783 762 744 718 700 689 684 682 679 676 685 691 693 686 670 680 701 691 702 716 710 698 697 702 716 718 740 748 750 752 799 767 786 801 812 825 832 835 842
785 780 781 784 781 777 770 755 744 734 711 693 693 683 674 675 686 682 679 668 668 678 690 689 708 725 719 710 703 713 707 704 714 726 743 752 798 777 787 799 812 822 828 837 845
779 774 767 780 784 771 767 753 735 732 727 709 703 687 681 677 668 683 683 669 668 672 685 686 702 712 723 717 711 722 712 705 716 739 738 760 784 789 794 804 813 822 832 840 848
772 766 756 763 769 776 774 738 723 727 717 705 702 698 688 687 679 682 676 673 673 689 681 692 715 707 697 690 696 707 713 713 720 721 740 769 779 785 794 804 814 825 833 841 850
762 761 758 761 763 768 759 735 713 712 708 700 699 680 680 680 674 681 671 676 683 686 688 690 713 702 706 690 687 705 706 711 718 725 741 756 780 781 792 805 818 826 834 841 848
757 759 762 754 756 761 737 720 706 702 697 693 685 684 677 676 676 664 660 668 672 685 690 696 703 708 722 698 703 727 718 720 725 725 735 766 777 784 799 810 819 826 833 841 849
Wind_Speed
17 18 19 21 23 25 26 27 27 27 26 26 24 25 26 30 34 22 14 8 9 10 8 7 12 15 15 15 17 12 12 15 19 11 14 11 12 18 18 20 24 15 12 30 26
17 18 19 21 22 23 26 28 29 29 29 27 24 24 25 28 28 20 14 11 9 8 10 13 12 13 12 16 14 11 12 20 15 11 12 21 19 10 9 15 19 24 26 29 25
19 21 19 19 21 23 24 27 29 30 30 28 24 23 25 26 11 2 10 8 10 13 17 17 16 14 13 15 16 12 14 17 14 13 14 18 25 23 16 17 15 21 21 22 22
20 21 23 19 20 21 24 27 29 31 30 27 24 22 25 6 4 4 5 8 14 14 15 16 16 13 13 15 15 13 18 13 15 16 22 18 14 27 26 20 19 20 20 20 16
20 21 22 23 21 23 25 27 29 31 30 26 22 18 13 7 12 2 5 5 8 13 17 14 13 13 14 16 14 14 10 14 1 19 22 24 24 19 19 17 17 18 15 11 10
22 22 22 22 23 23 26 28 30 31 30 25 19 13 5 10 7 3 3 2 8 14 16 17 12 12 13 14 13 14 9 11 3 18 15 22 13 9 10 12 14 13 12 10 12
21 22 23 24 25 24 26 30 32 31 29 21 13 7 9 19 7 8 5 10 12 15 14 14 14 7 9 10 15 14 14 13 4 20 16 23 16 11 11 10 15 19 16 18 22
20 22 24 24 25 27 27 31 35 33 25 13 8 5 8 10 10 16 13 11 14 13 15 8 7 8 13 10 14 12 12 12 15 14 18 12 9 12 11 13 15 14 13 14 16
20 23 25 27 26 28 29 34 37 26 17 8 4 9 10 3 13 19 17 16 13 11 13 1 6 11 11 12 12 12 12 18 11 11 15 7 12 14 12 13 12 11 11 10 10
20 22 25 26 27 26 30 34 24 18 7 7 12 9 10 9 11 15 18 19 12 12 11 10 7 10 12 11 11 16 18 9 14 9 17 18 17 14 13 12 11 10 9 9 9
19 21 25 25 25 23 28 18 3 5 9 9 4 9 5 9 3 8 13 17 14 13 16 15 12 15 17 19 20 20 14 10 16 11 7 18 17 13 13 11 10 10 9 9 9
18 20 24 26 25 20 19 10 7 8 11 18 23 23 26 9 7 13 15 14 16 19 17 15 17 18 18 17 18 14 13 11 15 9 4 16 15 12 11 10 10 11 10 11 10
18 18 22 26 24 15 12 15 13 12 7 12 21 23 22 20 16 13 20 18 17 19 19 20 20 21 18 19 14 13 14 12 14 11 4 17 9 12 7 7 10 10 11 11 11
17 17 19 26 13 14 12 6 5 9 5 8 9 18 22 21 14 28 24 18 14 22 22 21 21 22 11 17 11 15 13 14 7 8 9 12 2 8 8 7 8 10 11 11 10
17 15 16 13 19 9 23 26 8 5 5 8 22 9 17 21 8 18 28 18 23 21 16 20 20 19 12 16 14 13 4 8 11 12 11 19 7 9 18 12 13 12 13 13 10
15 13 14 13 12 13 22 22 8 5 11 9 9 14 19 24 25 12 21 20 19 20 19 19 17 14 19 14 13 15 8 9 11 13 12 2 8 10 12 19 18 16 14 14 10
15 12 12 12 11 16 21 12 5 10 11 16 19 15 22 21 25 24 24 24 19 18 18 20 20 17 20 15 14 14 9 8 10 8 5 8 3 4 11 15 23 22 18 14 10
15 14 13 16 12 15 10 3 10 17 23 9 18 17 20 21 22 25 23 22 23 21 16 17 16 20 15 18 11 15 15 9 6 2 9 16 6 6 18 20 21 19 17 15 14
13 14 17 16 10 2 1 9 13 17 30 21 18 15 21 21 13 24 24 24 24 24 21 16 17 19 19 12 16 15 15 16 12 12 9 9 14 15 18 19 19 18 18 15 13
13 16 22 14 15 11 5 19 17 20 20 28 18 16 19 22 19 23 21 23 24 26 23 19 11 20 18 15 20 16 11 11 6 9 9 7 8 11 16 17 18 18 15 14 13
14 5 16 19 16 3 7 16 21 30 25 18 19 17 20 20 23 19 17 18 25 25 23 21 13 13 19 13 19 10 11 7 10 6 6 11 6 11 17 17 18 16 15 14 12
14 9 13 22 7 4 13 24 28 27 25 9 7 13 14 19 23 21 24 20 20 21 24 23 8 10 20 16 15 14 15 13 6 5 5 6 4 12 20 19 17 18 15 14 13
10 11 11 19 8 13 9 25 34 32 27 9 9 10 14 15 15 18 14 21 9 21 21 17 5 10 14 13 16 12 13 14 2 5 7 8 8 14 17 18 17 15 16 14 13
7 5 10 5 2 10 16 26 36 31 31 25 18 15 16 11 11 16 17 15 10 19 8 4 8 11 10 15 13 12 17 7 7 3 1 8 22 18 18 19 16 16 15 14 13
8 7 6 4 11 15 18 23 31 28 28 18 13 18 17 11 14 14 19 12 11 5 10 7 9 13 18 15 18 17 18 9 7 3 4 17 19 19 18 18 17 16 16 15 12
5 6 5 7 10 12 19 25 31 25 23 24 19 12 15 13 11 15 15 12 15 10 14 11 11 12 7 10 19 15 10 8 5 9 17 19 19 18 18 19 18 17 16 14 12
18 7 1 6 6 7 14 26 27 27 23 26 16 11 15 5 13 15 11 6 5 12 12 13 6 8 9 6 9 7 5 5 6 2 20 16 19 20 20 18 17 17 15 14 13
Wind_Direction
346 352 353 355 357 357 356 352 349 345 341 338 336 331 332 327 319 316 256 264 216 236 218 232 229 246 241 257 258 269 278 278 292 42 17 178 136 90 81 84 59 47 99 127 139
344 337 342 346 347 352 353 351 348 346 341 337 336 333 330 328 318 279 250 243 235 234 221 229 227 234 244 247 245 235 260 267 321 24 120 68 53 121 112 83 73 81 100 123 137
347 337 329 332 337 344 346 345 346 346 340 334 334 334 328 327 292 88 185 229 244 232 228 247 246 232 243 254 248 238 259 275 322 33 7 96 60 31 97 68 103 117 125 137 152
341 341 346 323 325 333 338 341 342 342 338 334 334 334 328 323 305 84 173 263 248 224 234 254 249 260 252 264 264 255 270 281 293 53 52 56 77 61 64 85 111 120 131 144 148
336 337 337 339 321 327 331 334 336 334 336 333 331 336 344 261 261 360 322 293 191 194 214 242 240 247 254 259 266 277 276 282 17 77 82 76 67 78 73 92 115 125 127 126 124
333 330 333 335 331 320 323 326 330 331 332 327 324 327 266 264 308 304 276 210 206 195 219 243 234 242 272 293 298 292 307 261 128 113 123 96 63 97 86 111 119 114 100 73 81
331 330 327 330 330 322 318 321 325 325 325 320 311 303 260 245 272 312 255 235 225 209 228 235 251 272 256 259 262 270 276 266 204 149 125 121 58 89 121 139 101 76 72 61 60
334 330 331 324 324 324 316 317 319 321 317 310 285 249 257 262 273 251 245 239 229 230 251 290 262 274 270 283 286 268 249 262 213 201 159 191 112 132 144 109 97 94 82 73 61
331 333 328 329 323 324 320 315 309 311 297 274 251 217 266 248 230 239 234 237 217 230 231 282 259 245 248 253 262 237 242 224 148 187 140 143 127 148 142 120 107 96 91 88 85
325 328 332 325 323 320 326 316 305 292 268 237 261 262 237 234 228 225 217 224 221 216 211 216 228 232 222 246 240 242 218 236 152 139 101 91 117 146 135 129 120 110 104 103 103
322 325 328 328 323 318 330 333 286 202 234 237 214 245 327 220 147 222 209 206 228 209 215 205 225 231 230 219 247 273 301 316 113 123 175 113 133 149 138 130 131 128 127 121 121
321 321 324 328 325 311 311 282 346 340 295 270 257 256 263 276 282 216 196 198 205 216 212 232 227 241 249 250 247 254 269 259 122 147 172 130 130 144 146 159 153 146 139 138 137
318 318 321 326 323 299 269 274 298 334 266 272 232 235 231 235 245 247 186 206 209 217 214 220 234 223 239 257 242 244 249 248 262 125 207 135 136 153 156 137 140 144 144 147 148
311 314 319 329 306 314 293 2 358 327 279 260 206 230 219 219 237 236 202 203 229 220 226 233 236 267 237 240 247 243 226 250 251 179 244 160 210 158 146 163 167 158 158 157 149
299 306 310 326 300 309 338 328 305 278 255 216 201 188 186 190 206 208 225 202 224 233 227 235 238 245 231 256 229 247 289 235 239 249 234 202 221 154 175 187 186 173 174 147 151
283 295 302 316 272 294 322 311 304 216 230 225 128 183 184 199 217 228 197 207 229 242 241 248 235 227 247 233 243 235 201 251 257 259 240 258 232 178 190 202 174 171 152 150 147
274 283 280 284 283 317 334 328 204 229 222 209 171 189 198 197 206 225 189 201 209 210 236 231 239 233 237 228 225 234 225 230 229 234 353 289 249 138 194 165 164 164 154 153 162
267 278 270 266 275 307 353 240 236 218 219 228 176 192 203 195 209 216 198 209 209 218 218 219 214 222 216 230 197 221 219 231 231 303 250 226 93 70 79 106 134 148 148 151 170
257 272 260 255 237 212 331 220 215 227 205 232 182 191 205 206 200 214 212 206 208 218 220 213 222 205 220 202 217 205 230 246 253 249 264 110 97 103 109 119 131 141 160 152 159
236 256 256 242 191 139 223 231 237 262 218 227 204 198 203 201 200 203 207 212 216 207 229 245 228 224 181 203 234 239 214 241 231 275 308 110 132 134 143 139 146 153 145 153 174
229 247 249 203 144 162 228 224 238 255 287 230 221 217 226 202 200 199 214 216 210 206 220 234 257 225 176 193 216 214 249 231 249 161 186 253 84 138 146 147 151 147 148 162 159
220 223 180 154 189 200 240 227 242 265 293 273 308 274 231 217 194 221 208 216 197 213 205 227 244 235 193 184 234 215 212 238 243 279 14 319 85 113 136 148 138 141 161 145 128
217 226 179 173 226 223 261 239 242 255 274 240 254 271 267 229 203 211 225 225 212 207 199 213 203 234 196 191 213 241 233 224 332 358 257 271 136 122 127 130 131 145 131 131 122
224 221 206 189 231 267 219 241 233 241 258 279 295 287 257 247 223 194 238 213 175 214 166 180 200 249 205 194 205 221 243 226 237 240 311 102 134 142 139 131 138 130 134 134 125
213 219 237 210 218 233 263 242 227 233 229 257 261 257 265 225 228 202 220 186 173 175 160 178 220 251 253 185 198 203 224 214 242 326 29 142 142 147 141 139 135 137 137 138 138
214 215 212 260 245 256 254 240 220 226 227 231 238 233 240 232 222 199 200 178 185 181 173 193 221 248 208 273 180 186 188 182 117 88 115 123 134 135 132 130 137 142 144 136 140
219 178 238 263 259 280 259 229 229 219 222 244 239 285 229 267 332 278 149 167 163 166 175 189 208 179 181 191 120 139 134 137 124 129 134 139 137 135 138 143 145 145 142 136 123